Погода Чёрный Яр

Погода Чёрный Яр : погода сейчас, прогноз погоды и архив. Всё, что Вы хотите узнать о погоде Чёрный Яр!

Поиск расширенной информации на нашем сайте:

Другие новости

Новости СМИ2

Главная страница сайта

Новости сайта

03.07.2017

Напоминаем, что на нашем специализированном сайте Метеоцентр.Азия вы можете получить высокодетализированные автоматические прогнозы погоды по пунктам России, СНГ и мира в авиационном формате (включающие направление и скорость ветра, видимость, явления погоды, количество и форму облачности, нижнюю и верхнюю границу облачности).

Рекомендуем: Изготовление деревянных крестов здесь.

Погода Чёрный Яр - сегодня

Время (UTC), дата Ветер
(°,м/с) 
Видим.   Явления Облачность Т
(°С)
Тd
(°С)
f(%) Тe
(°С)
Pmin
(гПа)
dP
(гПа)
Po
(мм)
O2
(г/м3)
Тmin Tmax R s Состояние
почвы
12 22.06.18 280 (З) 10 км    ясно 
+32.3 +6 19 +32  1011.5  -1.5  758  272           
15 22.06.18 320 (СЗ) 10 км    ясно 
+32 +6.4 20 +32  1010.6  -1  757  272    +32.8       
18 22.06.18 010 (С) 10 км    ясно 
+25.6 +11.1 40 +28  1011.3  0.8  758  277           
21 22.06.18 010 (С) 10 км    ясно 
+22.2 +10.2 46 +23  1011.9  0.6  758  281           
00 23.06.18 060 (СВ) 10 км    ясно 
+19.8 +7.1 44 +21  1012.1  0.2  759  284           
03 23.06.18 060 (СВ) 10 км    ясно 
+21.8 +4.3 32 +22  1012.6  0.5  759  283  +19.2        сухая 
06 23.06.18 080 (В) 10 км    ясно 
+28.9 +4.1 21 +29  1012.9  0.3  759  276           
09 23.06.18 080 (В) 10 км    ясно 
+31.7 +3.3 17 +32  1012.1  -0.8  759  273           
12 23.06.18 040 (СВ) 10 км    ясно 
+33.2 +0.9 13 +33  1010.8  -1.3  758  272           
15 23.06.18 050 (СВ) 10 км    ясно 
+32.3 +2.6 15 +32  1009.9  -0.9  757  272    +33.4       
18 23.06.18 тихо ()   10 км    ясно 
+23.9 +6.5 33 +24  1010.9  0.9  758  280           
21 23.06.18 040 (СВ) 10 км    3/0 верхняя 
[Ci]
+22.1 +5.4 34 +22  1010.9  0.1  758  282           
00 24.06.18 070 (В) 10 км    1/0 верхняя 
[Ci fib]
+18 +8.3 53 +19  1011.2  0.3  758  285           
03 24.06.18 090 (В) 10 км    1/0 верхняя 
[Ci fib]
+21.7 +5 34 +22  1012  0.8  759  282  +17.1        сухая 
06 24.06.18 090 (В) 10 км    8/0 верхняя 
[Ci fib]
+29.7 +11 31 +32  1012.1  0.1  759  274           
09 24.06.18 070 (В) 10 км    9/0 верхняя 
[Ci]
+33.4 +1.7 13 +33  1012.1  759  272           
12 24.06.18 080 (В) 10 км    10/0 верхняя 
[Cs]
+32.7 +6.1 19 +33  1011.7  -0.4  758  272           
15 24.06.18 100 (В) 10 км    10/0 средняя, верхняя 
[Ac cuf|Ci fib]
+31.3 +8.8 25 +31  1011.7  758  273    +33.9       
18 24.06.18 тихо ()   10 км    10/0 средняя 
[Ac cast]
+24.2 +10.7 43 +26  1013  1.2  759  279           
21 24.06.18 тихо ()   10 км    1/0 верхняя 
[Ci fib]
+20.4 +10.8 54 +22  1013.3  0.3  759  283           
00 25.06.18 тихо ()   10 км    ясно 
+18.5 +11.7 65 +22  1013.8  0.5  760  285           
03 25.06.18 360 (С) 10 км    1/0 средняя 
[Ac cast]
+23.1 +11.5 48 +26  1014.6  0.8  760  280  +17.6        сухая 
06 25.06.18 020 (С) 10 км    1/0 средняя 
[Ac cast]
+31.1 +7.3 23 +31  1014.8  0.3  761  274           
09 25.06.18 360 (С) 10 км    3/0 средняя 
[Ac cast]
+35.8 +3.7 14 +36  1014.4  -0.4  760  270           
12 25.06.18 120 (ЮВ) 10 км    8/1 1000 м средняя 
[Cu med, cong|Ac cuf]
+37.6 +1.3 10 +38  1013.6  -0.8  760  269           
Время (UTC), дата Ветер
(°,м/с) 
Видим.   Явления Облачность Т
(°С)
Тd
(°С)
f(%) Тe
(°С)
Pmin
(гПа)
dP
(гПа)
Po
(мм)
O2
(г/м3)
Тmin Tmax R s Состояние
почвы

Для получения пояснительной информации подведите курсор к названию столбца.

ПОГОДА Чёрный Яр - архив

Всё, что Вы хотите узнать о погоде Чёрный Яр - удобно и подробно!

Выберите нужную дату (начиная с 1 января 2015* года) и нажмите кнопку "Найти".
Будут отображены архивные сводки погоды по пункту Чёрный Яр, начиная с указанной даты.


Отображать данные в формате CSV (для использования в таблицах Excel)


Внимание! Наш архив погоды предназначен исключительно для личного некоммерческого использования в познавательных целях. Если Вам необходимы официальные справки о состоянии погоды (для производственных, юридических, коммерческих и т.п. целей), обращайтесь в органы Росгидромета.

*Примечание: данная дата относится к архиву по метеостанциям СССР (Россия, СНГ, Балтия).
Архив по метеостанциям Зарубежной Европы и Азии (кроме Китая) хранится 10 дней, по другим регионам земного шара (Китай, Африка, Америка, Австралия, Океания) - 1 день.

Чёрный Яр - район местоположения метеостанции


Название, широта, долгота, высота метеостанции:
Чёрный Яр 48.1°ш. 46.1°д. 5 м над ур. моря [Российская Федерация]

Дополнительная информация

В oтличие oт бoльшинства пoгoдных сайтoв мы публикуем пoдрoбную метеoинфoрмацию в детальнoм прoфессиoнальнoм фoрмате.

Характеристики температуры и влажнoсти вoздуха измеряются на высoте 2 м в тени вдали oт зданий и деревьев.
Скoрoсть ветра измеряется на высoте 10 м (на урoвне рoста челoвека скoрoсть ветра ниже в 1.5-2 раза). Если метеoстанция нахoдится в гoрoде или в лесу, тo скoрoсть ветра занижена на 2-4 м/с пo сравнению с oткрытым местoм. Скoрoсть ветра над акватoриями крупных рек и oзёр, а также на вершинах хoлмoв на 2-5 м/с выше, чем в oбычных услoвиях.
Атмoсфернoе давление в разных тoчках местнoсти мoжет значительнo oтличаться oт давления на метеoстанции, в зависимoсти oт услoвий рельефа (при пoдъёме на 10 м давление пoнижается примернo на 1 мм рт.ст.).